FENGYUN 1C DEB, 31448

Orbit data source: Space-Track

FENGYUN 1C DEB, 31448 is space debris in SSO originally from a launch on Mon, 10 May 1999 UTC launched from the Taiyaun Space Center, China (TSC). Fengyun 1C debris stems from the Chinese weather satellite Fengyun-1C, which was intentionally destroyed by a Chinese anti-satellite missile in 2007. This event dramatically increased the amount of space debris, with thousands of trackable fragments posing hazards to satellites and human spaceflight. The Fengyun 1C debris cloud has become a focal point in discussions about space sustainability and the need for international regulations to prevent the creation of new debris.

Loading next visibility...
Identifier
31448, 1999-025BUL
Orbit
SSO
Country
Flag of CNCN / PRC
Related business
Manufacturer
Unknown
Mission
Spacecraft
Bus & Motor
Unknown
Mass
Unknown
Launch date (UTC)
1999-05-10 (27 years ago)
Launch vehicle
Unknown
Launch site
Taiyaun Space Center, China (TSC)
Object type
Payload
Rocket body
Debris
Shape & HBR
Unknown shape, 0.1 m
Radar Cross Section
Small (<0.1 m²)

Expand to show TLE details & history
Last TLE update: 8 hours ago

TLE from 8 hours ago
0 FENGYUN 1C DEB
1 31448U 99025BUL 26208.26010952  .00001351  00000-0  54650-3 0  9991
2 31448  98.4933 218.5427 0056854 259.1626 100.3154 14.28552462675377
Epoch: 2026-07-27T06:14Z
TLE epoch observation values (Epoch: 2026-07-27T06:14:33.462Z)
Latitude
-0°
Longitude
179.95703°
Altitude
807.036 km
Speed
7.446 km/s
True Right ascension
14h 34m 10s
True Declination
0° 00' 00"
Sunlit
Object was in daylight at epoch
Visualization orbit readout
Latitude
Unknown
Longitude
Unknown
Altitude
Unknown
Speed
Unknown
Apparent Right ascension
Unknown
Apparent Declination
Unknown
Sunlit
N/A
Visualization observer readout
Local Sidereal Time
03:41:32
Azimuth
Unknown
Elevation
Unknown
Doppler factor
Unknown
Orbital elements
Apogee altitude
834.485 km
Perigee altitude
752.935 km
Semi-major axis
7,171.847 km
Eccentricity
0.00569
Inclination
98.4933°
RAAN
218.5427°
Arg. of periapsis
259.1626°
True anomaly
100.95554°
Mean anomaly
100.3154°
Eccentric anomaly
100.63555°
Mean motion
3.57352 °/min
Orbital period
100.74 mins
BSTAR
0.0005465
Loading maneuver chart data...
Computing Atmospheric mass density...
Loading historical data...
Loading historical data...
Loading historical data...
Loading historical data...
Loading historical data...
Loading historical data...
Loading historical data...

Documentation

Showing up to 5 results
|